Weather History for Huron, SD

Change the Weather History Date:

Wednesday, November 21, 2012

  Actual Average Record
Temperature  
Mean Temperature 48 °F 29 °F  
Max Temperature 68 °F 39 °F 68 °F (1960)
Min Temperature 28 °F 19 °F -13 °F (1964)
Degree Days  
Heating Degree Days 17 36  
Month to date heating degree days 589 626  
Since 1 July heating degree days 1342 1356  
Cooling Degree Days 0 0  
Month to date cooling degree days 0 0  
Year to date cooling degree days 1083 742  
Moisture  
Dew Point 29 °F    
Average Humidity 50    
Maximum Humidity 92    
Minimum Humidity 12    
Precipitation  
Precipitation 0.00 in 0.02 in 0.33 in (1963)
Month to date precipitation 0.17 0.66  
Year to date precipitation 18.53 22.17  
Snow  
Snow 0.00 in 0.30 in 2.30 in (1985)
Month to date snowfall T 4.6  
Since 1 July snowfall 1.0 5.7  
Since 1 September snowfall 1.0 5.7  
Snow Depth 0.00 in    
Sea Level Pressure  
Sea Level Pressure 29.77 in    
Wind  
Wind Speed 9 mph (SSE)    
Max Wind Speed 17 mph    
Max Gust Speed 23 mph    
Visibility 10 miles    
Events      
T = Trace of Precipitation, MM = Missing Value Source: NWS Daily Summary

Daily Weather History Graph

Daily Weather History Graph

Search for Another Location

Airport:

Trip Planner

Search our weather history database for the weather conditions in past years. The results will help you decide how hot, cold, wet, or windy it might be!

Date:

Astronomy

Nov. 21, 2012 Rise Set
Actual Time 7:37 AM CST 5:00 PM CST
Civil Twilight 7:05 AM CST 5:32 PM CST
Nautical Twilight 6:29 AM CST 6:07 PM CST
Astronomical Twilight 5:55 AM CST 6:42 PM CST
Moon 1:30 PM CST (11/21) 12:43 AM CST (11/21)
Length of Visible Light 10h 26m
Length of Day
9h 22m
First Quarter, 62% of the Moon is Illuminated
Nov 21
First Quarter
Nov 28
Full
Dec 6
Last Quarter
Dec 13
New
Dec 19
First Quarter

Hourly Weather History & Observations

Time (CST) Temp. Windchill Dew Point Humidity Pressure Visibility Wind Dir Wind Speed Gust Speed Precip Events Conditions
12:55 AM 39.0 °F 34.8 °F 30.0 °F 70% 29.94 in 10.0 mi South 5.8 mph - N/A   Clear
1:55 AM 34.0 °F 31.0 °F 28.0 °F 79% 29.93 in 10.0 mi South 3.5 mph - N/A   Clear
2:55 AM 33.1 °F 30.0 °F 28.9 °F 85% 29.93 in 10.0 mi SE 3.5 mph - N/A   Clear
3:55 AM 30.9 °F 27.5 °F 28.0 °F 89% 29.93 in 10.0 mi SE 3.5 mph - N/A   Clear
4:55 AM 28.0 °F 22.8 °F 26.1 °F 92% 29.93 in 10.0 mi East 4.6 mph - N/A   Clear
5:55 AM 32.0 °F 26.4 °F 28.4 °F 87% 29.89 in 10.0 mi SE 5.8 mph - N/A   Clear
6:55 AM 34.0 °F 31.0 °F 28.9 °F 82% 29.91 in 10.0 mi SSE 3.5 mph - N/A   Clear
7:55 AM 35.1 °F 30.1 °F 30.0 °F 82% 29.90 in 10.0 mi SE 5.8 mph - N/A   Clear
8:55 AM 39.0 °F 32.3 °F 32.0 °F 76% 29.87 in 10.0 mi SSE 10.4 mph - N/A   Clear
9:55 AM 45.0 °F 40.1 °F 33.1 °F 63% 29.85 in 10.0 mi SSE 9.2 mph - N/A   Clear
10:55 AM 51.1 °F - 32.0 °F 48% 29.83 in 10.0 mi SSE 10.4 mph - N/A   Clear
11:55 AM 57.0 °F - 33.1 °F 40% 29.79 in 10.0 mi South 12.7 mph - N/A   Clear
12:55 PM 62.1 °F - 30.9 °F 31% 29.75 in 10.0 mi SSE 6.9 mph - N/A   Clear
1:55 PM 64.0 °F - 30.9 °F 29% 29.72 in 10.0 mi South 8.1 mph - N/A   Clear
2:55 PM 68.0 °F - 28.0 °F 22% 29.68 in 10.0 mi South 15.0 mph 23.0 mph N/A   Clear
3:55 PM 66.9 °F - 28.9 °F 24% 29.68 in 10.0 mi South 8.1 mph - N/A   Clear
4:55 PM 63.0 °F - 28.9 °F 28% 29.66 in 10.0 mi South 11.5 mph - N/A   Clear
5:55 PM 59.0 °F - 28.9 °F 32% 29.65 in 10.0 mi South 10.4 mph - N/A   Clear
6:55 PM 57.0 °F - 28.0 °F 33% 29.64 in 10.0 mi South 8.1 mph - N/A   Clear
7:55 PM 57.9 °F - 28.0 °F 32% 29.63 in 10.0 mi South 15.0 mph - N/A   Clear
8:55 PM 55.9 °F - 28.9 °F 36% 29.62 in 10.0 mi South 11.5 mph - N/A   Clear
9:55 PM 55.9 °F - 28.9 °F 36% 29.61 in 10.0 mi SSW 11.5 mph - N/A   Clear
10:55 PM 53.1 °F - 28.9 °F 40% 29.60 in 10.0 mi SSW 9.2 mph - N/A   Clear
11:55 PM 52.0 °F - 27.0 °F 38% 29.59 in 10.0 mi SW 10.4 mph - N/A   Clear